Starlink 3711

operational
NORAD ID: 52131 Int'l Des: 2022-029 Owner: SPXS Country: US Constellation: starlink
LEOCIRCULAR

About Starlink 3711

Description loading...

Live Position

Loading 3D Globe...

Upcoming Passes

Altitude History

Altitude vs Time

uPlot chart will show altitude changes over time

Two-Line Element Set

1 52131U 22029AV 26048.70512238 .00024439 00000-0 13857-2 0 9993
2 52131 53.2150 157.8056 0002241 176.1112 183.9900 15.12867620217930
Epoch: Feb 17, 2026 • Age: 12 hours

Current Status

Altitude 545.5 km
Velocity 7.59 km/s
Sub-Earth Point -51.15°S, 139.16°W
Launch Date Mar 19, 2022
Age 3.9 years
Type internet

Technical Details

Classification Payload
Mass 297.00 kg
Dry Mass 275.00 kg
Total Mass 297.00 kg
Length 0.20 m
Diameter 2.80 m
Span 9.00 m
Shape Box + pan
Manufacturer SPXS
Bus Type Starlink
Phase Status In Orbit
Owner/State SPXS/US

Large Constellations

Loading constellations...